KE9ADS Weather Reports


Display with metric or nautical units.
time (UTC)temp
F
wind
direction
speed
MPH
gust
MPH
rain 1hr
in
rain 24hr
in
rain mn
in
humidity
%
barometer
mb
20260504140429 67 226 3.0 8.0 0.00 0.00 0.00 48 1005.5
20260504130423 60 170 1.0 7.0 0.00 0.00 0.00 59 1006.3
20260504110357 50 191 0.0 0.0 0.00 0.00 0.00 72 1006.6
20260504100343 48 199 0.0 0.0 0.00 0.00 0.00 77 1006.9
20260504081320 52 216 0.0 1.0 0.00 0.00 0.00 67 1007.8
20260504080319 52 231 1.0 1.0 0.00 0.00 0.00 66 1008.1
20260504070309 50 207 0.0 1.0 0.00 0.00 0.00 75 1008.3
20260504050241 59 221 1.0 2.0 0.00 0.00 0.00 55 1009.4
20260504045238 59 243 1.0 3.0 0.00 0.00 0.00 54 1009.7
20260504044234 59 223 0.0 1.0 0.00 0.00 0.00 55 1009.7
20260504043233 59 224 0.0 0.0 0.00 0.00 0.00 56 1009.6
20260504042233 60 214 0.0 0.0 0.00 0.00 0.00 53 1009.9
20260504041231 60 227 0.0 1.0 0.00 0.00 0.00 53 1009.6
20260504040232 61 257 2.0 3.0 0.00 0.00 0.00 51 1009.6
20260504035231 61 244 1.0 2.0 0.00 0.00 0.00 51 1009.8
20260504034225 62 211 0.0 3.0 0.00 0.00 0.00 50 1009.8
20260504033220 62 253 2.0 3.0 0.00 0.00 0.00 49 1009.9
20260504032220 63 257 1.0 2.0 0.00 0.00 0.00 48 1010.0
20260504031219 63 224 2.0 6.0 0.00 0.00 0.00 48 1009.8
20260504030218 64 245 4.0 8.0 0.00 0.00 0.00 47 1009.7
20260504025217 64 262 4.0 6.0 0.00 0.00 0.00 46 1009.8
20260504024217 64 206 3.0 7.0 0.00 0.00 0.00 46 1009.6
20260504023215 64 274 2.0 4.0 0.00 0.00 0.00 46 1009.5
20260504022214 64 231 2.0 4.0 0.00 0.00 0.00 46 1009.5
20260504021214 65 263 2.0 3.0 0.00 0.00 0.00 45 1009.5
20260504020214 66 260 2.0 6.0 0.00 0.00 0.00 44 1009.3
20260504015212 66 274 5.0 6.0 0.00 0.00 0.00 43 1009.4
20260504014211 66 238 2.0 6.0 0.00 0.00 0.00 43 1009.2
20260504013212 67 261 6.0 7.0 0.00 0.00 0.00 42 1009.1
20260504012206 68 212 4.0 7.0 0.00 0.00 0.00 42 1009.0
20260504011205 68 229 6.0 7.0 0.00 0.00 0.00 41 1008.9
20260504010203 68 259 4.0 8.0 0.00 0.00 0.00 41 1008.9
20260504005203 69 275 3.0 8.0 0.00 0.00 0.00 41 1008.9
20260504004157 69 262 5.0 9.0 0.00 0.00 0.00 40 1008.9
20260504003156 70 252 4.0 7.0 0.00 0.00 0.00 39 1008.9
20260504002156 70 257 6.0 8.0 0.00 0.00 0.00 39 1008.8
20260504001156 71 261 4.0 10.0 0.00 0.00 0.00 40 1008.9
20260504000156 71 237 2.0 7.0 0.00 0.00 0.00 40 1008.8
20260503235151 71 275 3.0 10.0 0.00 0.00 0.00 40 1008.8
20260503234147 71 256 5.0 7.0 0.00 0.00 0.00 40 1008.9
20260503233145 71 263 2.0 9.0 0.00 0.00 0.00 40 1009.1
20260503232145 71 276 4.0 9.0 0.00 0.00 0.00 40 1009.0
20260503231145 71 303 8.0 14.0 0.00 0.00 0.00 41 1009.1
20260503230145 71 204 4.0 8.0 0.00 0.00 0.00 41 1009.1
20260503225142 71 254 4.0 13.0 0.00 0.00 0.00 41 1009.1
20260503224137 72 275 4.0 9.0 0.00 0.00 0.00 40 1009.0
20260503223137 72 268 4.0 9.0 0.00 0.00 0.00 41 1009.3
20260503222132 71 284 9.0 13.0 0.00 0.00 0.00 41 1009.0
20260503221127 71 344 4.0 11.0 0.00 0.00 0.00 40 1009.0
20260503220126 71 277 6.0 14.0 0.00 0.00 0.00 40 1009.3
20260503215126 72 252 3.0 7.0 0.00 0.00 0.00 41 1009.4
20260503214120 73 283 3.0 6.0 0.00 0.00 0.00 38 1009.3
20260503213116 72 255 5.0 8.0 0.00 0.00 0.00 39 1009.4
20260503212111 72 242 5.0 11.0 0.00 0.00 0.00 39 1009.3
20260503211109 71 276 8.0 18.0 0.00 0.00 0.00 38 1009.5
20260503210108 73 231 1.0 4.0 0.00 0.00 0.00 40 1009.6
20260503205107 73 280 4.0 7.0 0.00 0.00 0.00 38 1009.6
20260503204101 73 244 6.0 9.0 0.00 0.00 0.00 39 1009.9
20260503203101 71 241 3.0 10.0 0.00 0.00 0.00 40 1009.8
20260503202056 71 260 6.0 10.0 0.00 0.00 0.00 40 1010.0
20260503201051 71 236 3.0 6.0 0.00 0.00 0.00 41 1009.9
20260503200050 71 256 7.0 8.0 0.00 0.00 0.00 40 1010.2
20260503195049 70 277 9.0 16.0 0.00 0.00 0.00 40 1010.1
20260503194047 70 245 7.0 14.0 0.00 0.00 0.00 40 1010.2
20260503193044 70 247 4.0 15.0 0.00 0.00 0.00 41 1010.5
20260503192042 69 286 2.0 9.0 0.00 0.00 0.00 43 1010.5
20260503191042 68 285 4.0 8.0 0.00 0.00 0.00 41 1010.6
20260503190042 68 255 4.0 15.0 0.00 0.00 0.00 42 1010.9
20260503185038 67 283 11.0 21.0 0.00 0.00 0.00 43 1011.1
20260503184037 67 252 10.0 13.0 0.00 0.00 0.00 43 1010.9
20260503183037 68 225 9.0 13.0 0.00 0.00 0.00 41 1011.1
20260503182033 68 276 6.0 14.0 0.00 0.00 0.00 41 1011.2
20260503181032 67 272 3.0 11.0 0.00 0.00 0.00 43 1011.3
20260503180026 67 268 11.0 18.0 0.00 0.00 0.00 42 1011.6
20260503175026 66 287 7.0 13.0 0.00 0.00 0.00 43 1011.6
20260503174026 65 236 4.0 15.0 0.00 0.00 0.00 44 1012.1
20260503173023 66 260 4.0 14.0 0.00 0.00 0.00 43 1012.3
20260503172018 65 250 2.0 7.0 0.00 0.00 0.00 43 1012.3
20260503171012 64 285 9.0 16.0 0.00 0.00 0.00 43 1012.3
20260503150942 53 328 2.0 4.0 0.00 0.00 0.00 58 1014.6